Location: Champseau
(45.8333°N, 1.7667°E)
Time: 03:18:18
(UTC+00:00)

Cosmos 2219 - Pass Details

Date: 18 April 2021
Orbit: 834 x 859 km, 71.1° (Epoch: 10 May)

Event Time Altitude Azimuth Distance (km) Brightness Sun altitude
Exits shadow 21:47:34 22° 227° (SW) 1,746 4.7 -26.5°
Maximum altitude 21:51:08 59° 300° (WNW) 965 3.6 -26.9°
Drops below altitude 10° 21:56:41 10° 20° (NNE) 2,458 6.0 -27.4°
Sets 21:59:11 0° 24° (NNE) 3,398 6.8 -27.6°
